| time (UTC) | temp F | wind direction | speed MPH | gust MPH | rain 1hr in | rain 24hr in | rain mn in | humidity % | barometer mb |
| 20260509095041 | 49 | 0 | 0.0 | 1.0 | 0.00 | 0.00 | 0.00 | 88 | 1010.2 |
| 20260509094554 | 49 | 0 | 0.0 | 1.0 | 0.00 | 0.00 | 0.00 | 88 | 1010.3 |
| 20260509094041 | 49 | 0 | 0.0 | 1.0 | 0.00 | 0.00 | 0.00 | 88 | 1010.3 |
| 20260509093542 | 49 | 0 | 0.0 | 0.0 | 0.00 | 0.00 | 0.00 | 88 | 1010.4 |
| 20260509093047 | 48 | 0 | 0.0 | 0.0 | 0.00 | 0.00 | 0.00 | 88 | 1010.5 |
| 20260509092543 | 48 | 0 | 0.0 | 0.0 | 0.00 | 0.00 | 0.00 | 88 | 1010.4 |
| 20260509092040 | 48 | 0 | 0.0 | 0.0 | 0.00 | 0.00 | 0.00 | 88 | 1010.4 |
| 20260509091603 | 49 | 0 | 0.0 | 0.0 | 0.00 | 0.00 | 0.00 | 88 | 1010.4 |
| 20260509091041 | 49 | 0 | 0.0 | 0.0 | 0.00 | 0.00 | 0.00 | 88 | 1010.5 |
| 20260509090541 | 49 | 0 | 0.0 | 0.0 | 0.00 | 0.00 | 0.00 | 88 | 1010.4 |
| 20260509090056 | 49 | 0 | 0.0 | 0.0 | 0.00 | 0.00 | 0.00 | 87 | 1010.3 |
| 20260509085540 | 49 | 0 | 0.0 | 1.0 | 0.00 | 0.00 | 0.00 | 87 | 1010.3 |
| 20260509085044 | 49 | 0 | 0.0 | 1.0 | 0.00 | 0.00 | 0.00 | 88 | 1010.4 |
| 20260509084551 | 49 | 0 | 0.0 | 1.0 | 0.00 | 0.00 | 0.00 | 87 | 1010.3 |
| 20260509084041 | 49 | 0 | 0.0 | 1.0 | 0.00 | 0.00 | 0.00 | 87 | 1010.4 |
| 20260509083541 | 49 | 0 | 0.0 | 3.0 | 0.00 | 0.00 | 0.00 | 87 | 1010.6 |
| 20260509083048 | 49 | 0 | 0.0 | 3.0 | 0.00 | 0.00 | 0.00 | 87 | 1010.5 |
| 20260509082541 | 49 | 0 | 1.0 | 3.0 | 0.00 | 0.00 | 0.00 | 87 | 1010.6 |
| 20260509082041 | 49 | 0 | 0.0 | 0.0 | 0.00 | 0.00 | 0.00 | 86 | 1010.7 |
| 20260509081559 | 49 | 0 | 0.0 | 2.0 | 0.00 | 0.00 | 0.00 | 86 | 1010.7 |
| 20260509081041 | 49 | 0 | 0.0 | 2.0 | 0.00 | 0.00 | 0.00 | 86 | 1010.7 |
| 20260509080541 | 49 | 289 | 0.0 | 3.0 | 0.00 | 0.00 | 0.00 | 86 | 1010.8 |
| 20260509080051 | 49 | 0 | 0.0 | 3.0 | 0.00 | 0.00 | 0.00 | 85 | 1010.6 |
| 20260509075541 | 49 | 0 | 0.0 | 2.0 | 0.00 | 0.00 | 0.00 | 85 | 1010.6 |
| 20260509075041 | 49 | 0 | 0.0 | 2.0 | 0.00 | 0.00 | 0.00 | 85 | 1010.7 |
| 20260509074546 | 49 | 0 | 0.0 | 4.0 | 0.00 | 0.00 | 0.00 | 85 | 1010.8 |
| 20260509074040 | 48 | 289 | 0.0 | 4.0 | 0.00 | 0.00 | 0.00 | 86 | 1010.7 |
| 20260509073541 | 48 | 289 | 0.0 | 4.0 | 0.00 | 0.00 | 0.00 | 87 | 1010.7 |
| 20260509073048 | 48 | 290 | 2.0 | 4.0 | 0.00 | 0.00 | 0.00 | 87 | 1010.6 |
| 20260509072543 | 48 | 0 | 0.0 | 0.0 | 0.00 | 0.00 | 0.00 | 86 | 1010.7 |
| 20260509072042 | 48 | 0 | 0.0 | 0.0 | 0.00 | 0.00 | 0.00 | 86 | 1010.8 |
| 20260509071550 | 48 | 0 | 0.0 | 2.0 | 0.00 | 0.00 | 0.00 | 86 | 1010.9 |
| 20260509071041 | 48 | 0 | 0.0 | 2.0 | 0.00 | 0.00 | 0.00 | 86 | 1010.8 |
| 20260509070542 | 49 | 0 | 0.0 | 0.0 | 0.00 | 0.00 | 0.00 | 86 | 1010.8 |
| 20260509070051 | 49 | 0 | 0.0 | 0.0 | 0.00 | 0.00 | 0.00 | 86 | 1010.8 |
| 20260509065541 | 49 | 0 | 0.0 | 0.0 | 0.00 | 0.00 | 0.00 | 86 | 1010.8 |
| 20260509065041 | 49 | 0 | 0.0 | 0.0 | 0.00 | 0.00 | 0.00 | 86 | 1010.8 |
| 20260509064547 | 49 | 0 | 0.0 | 2.0 | 0.00 | 0.00 | 0.00 | 86 | 1010.9 |
| 20260509064042 | 49 | 0 | 0.0 | 2.0 | 0.00 | 0.00 | 0.00 | 86 | 1010.8 |
| 20260509063540 | 49 | 0 | 0.0 | 2.0 | 0.00 | 0.00 | 0.00 | 85 | 1010.8 |
| 20260509063049 | 49 | 0 | 0.0 | 0.0 | 0.00 | 0.00 | 0.00 | 86 | 1010.8 |
| 20260509062541 | 49 | 0 | 0.0 | 0.0 | 0.00 | 0.00 | 0.00 | 86 | 1010.9 |
| 20260509062042 | 49 | 0 | 0.0 | 0.0 | 0.00 | 0.00 | 0.00 | 86 | 1010.8 |
| 20260509061601 | 49 | 0 | 0.0 | 2.0 | 0.00 | 0.00 | 0.00 | 85 | 1011.0 |
| 20260509061040 | 49 | 0 | 0.0 | 2.0 | 0.00 | 0.00 | 0.00 | 85 | 1011.1 |
| 20260509060541 | 50 | 290 | 1.0 | 2.0 | 0.00 | 0.00 | 0.00 | 84 | 1011.1 |
| 20260509060044 | 50 | 0 | 0.0 | 0.0 | 0.00 | 0.00 | 0.00 | 84 | 1011.1 |
| 20260509055544 | 50 | 0 | 0.0 | 0.0 | 0.00 | 0.00 | 0.00 | 84 | 1011.2 |
| 20260509055042 | 50 | 0 | 0.0 | 0.0 | 0.00 | 0.00 | 0.00 | 83 | 1011.1 |
| 20260509054559 | 50 | 0 | 0.0 | 0.0 | 0.00 | 0.00 | 0.00 | 83 | 1011.0 |
| 20260509054042 | 50 | 0 | 0.0 | 1.0 | 0.00 | 0.00 | 0.00 | 83 | 1011.1 |
| 20260509053542 | 50 | 0 | 0.0 | 2.0 | 0.00 | 0.00 | 0.00 | 82 | 1011.1 |
| 20260509053058 | 50 | 0 | 0.0 | 2.0 | 0.00 | 0.00 | 0.00 | 82 | 1011.2 |
| 20260509052542 | 50 | 290 | 1.0 | 2.0 | 0.00 | 0.00 | 0.00 | 83 | 1011.2 |
| 20260509052040 | 50 | 290 | 1.0 | 2.0 | 0.00 | 0.00 | 0.00 | 83 | 1011.1 |
| 20260509051550 | 50 | 290 | 0.0 | 2.0 | 0.00 | 0.00 | 0.00 | 84 | 1011.2 |
| 20260509051045 | 50 | 290 | 1.0 | 2.0 | 0.00 | 0.00 | 0.00 | 85 | 1011.2 |
| 20260509050542 | 50 | 290 | 1.0 | 2.0 | 0.00 | 0.00 | 0.00 | 85 | 1011.3 |
| 20260509050044 | 50 | 290 | 0.0 | 1.0 | 0.00 | 0.00 | 0.00 | 85 | 1011.3 |
| 20260509045542 | 50 | 0 | 0.0 | 0.0 | 0.00 | 0.00 | 0.00 | 85 | 1011.4 |
| 20260509045041 | 50 | 0 | 0.0 | 0.0 | 0.00 | 0.00 | 0.00 | 84 | 1011.4 |
| 20260509044556 | 50 | 0 | 0.0 | 0.0 | 0.00 | 0.00 | 0.00 | 84 | 1011.4 |
| 20260509044040 | 50 | 0 | 0.0 | 3.0 | 0.00 | 0.00 | 0.00 | 85 | 1011.5 |
| 20260509043545 | 50 | 0 | 1.0 | 3.0 | 0.00 | 0.00 | 0.00 | 84 | 1011.5 |
| 20260509043047 | 50 | 290 | 1.0 | 2.0 | 0.00 | 0.00 | 0.00 | 84 | 1011.6 |
| 20260509042541 | 50 | 290 | 0.0 | 1.0 | 0.00 | 0.00 | 0.00 | 83 | 1011.6 |
| 20260509042043 | 50 | 0 | 0.0 | 0.0 | 0.00 | 0.00 | 0.00 | 83 | 1011.6 |
| 20260509041546 | 50 | 0 | 0.0 | 0.0 | 0.00 | 0.00 | 0.00 | 82 | 1011.6 |
| 20260509041042 | 50 | 0 | 0.0 | 0.0 | 0.00 | 0.00 | 0.00 | 81 | 1011.7 |
| 20260509040540 | 50 | 0 | 0.0 | 2.0 | 0.00 | 0.00 | 0.00 | 81 | 1011.6 |
| 20260509040051 | 50 | 0 | 0.0 | 2.0 | 0.00 | 0.00 | 0.00 | 82 | 1011.6 |
| 20260509035542 | 50 | 290 | 1.0 | 2.0 | 0.00 | 0.00 | 0.00 | 82 | 1011.7 |
| 20260509035042 | 50 | 290 | 0.0 | 2.0 | 0.00 | 0.00 | 0.00 | 82 | 1011.7 |
| 20260509034559 | 51 | 0 | 0.0 | 2.0 | 0.00 | 0.00 | 0.00 | 82 | 1011.8 |
| 20260509034041 | 51 | 290 | 0.0 | 2.0 | 0.00 | 0.00 | 0.00 | 81 | 1011.8 |
| 20260509033543 | 51 | 290 | 1.0 | 2.0 | 0.00 | 0.00 | 0.00 | 80 | 1011.8 |
| 20260509033054 | 52 | 290 | 0.0 | 2.0 | 0.00 | 0.00 | 0.00 | 80 | 1011.8 |
| 20260509032542 | 52 | 0 | 0.0 | 2.0 | 0.00 | 0.00 | 0.00 | 79 | 1011.9 |
| 20260509032044 | 52 | 0 | 0.0 | 3.0 | 0.00 | 0.00 | 0.00 | 79 | 1012.0 |
| 20260509031554 | 52 | 290 | 1.0 | 3.0 | 0.00 | 0.00 | 0.00 | 80 | 1012.0 |
| 20260509031041 | 52 | 290 | 2.0 | 3.0 | 0.00 | 0.00 | 0.00 | 80 | 1012.1 |
| 20260509030541 | 52 | 281 | 1.0 | 3.0 | 0.00 | 0.00 | 0.00 | 82 | 1012.1 |
| 20260509030048 | 52 | 281 | 2.0 | 3.0 | 0.00 | 0.00 | 0.00 | 82 | 1012.2 |
| 20260509025541 | 52 | 281 | 0.0 | 3.0 | 0.00 | 0.00 | 0.00 | 79 | 1012.2 |
| 20260509025041 | 52 | 279 | 1.0 | 3.0 | 0.00 | 0.00 | 0.00 | 81 | 1012.3 |
| 20260509024545 | 52 | 0 | 1.0 | 3.0 | 0.00 | 0.00 | 0.00 | 80 | 1012.1 |
| 20260509024041 | 52 | 0 | 0.0 | 3.0 | 0.00 | 0.00 | 0.00 | 79 | 1012.2 |
| 20260509023540 | 52 | 0 | 2.0 | 3.0 | 0.00 | 0.00 | 0.00 | 80 | 1012.3 |
| 20260509023044 | 52 | 281 | 0.0 | 4.0 | 0.00 | 0.00 | 0.00 | 80 | 1012.3 |
| 20260509022540 | 52 | 281 | 2.0 | 4.0 | 0.00 | 0.00 | 0.00 | 80 | 1012.4 |
| 20260509022042 | 52 | 0 | 0.0 | 3.0 | 0.00 | 0.00 | 0.00 | 78 | 1012.2 |
| 20260509021551 | 52 | 269 | 0.0 | 2.0 | 0.00 | 0.00 | 0.00 | 79 | 1012.2 |
| 20260509021039 | 52 | 0 | 0.0 | 4.0 | 0.00 | 0.00 | 0.00 | 78 | 1012.2 |
| 20260509020541 | 52 | 269 | 2.0 | 4.0 | 0.00 | 0.00 | 0.00 | 77 | 1012.2 |
| 20260509020050 | 53 | 269 | 2.0 | 8.0 | 0.00 | 0.00 | 0.00 | 77 | 1012.2 |
| 20260509015541 | 52 | 0 | 1.0 | 8.0 | 0.00 | 0.00 | 0.00 | 76 | 1012.2 |
| 20260509015042 | 52 | 316 | 1.0 | 3.0 | 0.00 | 0.00 | 0.00 | 78 | 1012.3 |
| 20260509014551 | 52 | 0 | 0.0 | 0.0 | 0.00 | 0.00 | 0.00 | 78 | 1012.2 |
| 20260509014040 | 53 | 0 | 0.0 | 0.0 | 0.00 | 0.00 | 0.00 | 78 | 1012.1 |
| 20260509013541 | 53 | 0 | 0.0 | 0.0 | 0.00 | 0.00 | 0.00 | 78 | 1012.0 |
| 20260509013051 | 53 | 0 | 0.0 | 0.0 | 0.00 | 0.00 | 0.00 | 77 | 1011.8 |
| 20260509012543 | 53 | 0 | 0.0 | 0.0 | 0.00 | 0.00 | 0.00 | 76 | 1011.9 |
| 20260509012041 | 53 | 0 | 0.0 | 0.0 | 0.00 | 0.00 | 0.00 | 75 | 1011.9 |
| 20260509011547 | 53 | 0 | 0.0 | 0.0 | 0.00 | 0.00 | 0.00 | 74 | 1011.9 |
| 20260509011040 | 53 | 0 | 0.0 | 0.0 | 0.00 | 0.00 | 0.00 | 73 | 1011.8 |
| 20260509010540 | 53 | 0 | 0.0 | 3.0 | 0.00 | 0.00 | 0.00 | 73 | 1011.8 |
| 20260509010052 | 53 | 0 | 0.0 | 5.0 | 0.00 | 0.00 | 0.00 | 74 | 1011.7 |
| 20260509005542 | 53 | 313 | 3.0 | 5.0 | 0.00 | 0.00 | 0.00 | 75 | 1011.7 |
| 20260509005040 | 54 | 306 | 2.0 | 5.0 | 0.00 | 0.00 | 0.00 | 74 | 1011.6 |
| 20260509004553 | 54 | 0 | 0.0 | 3.0 | 0.00 | 0.00 | 0.00 | 69 | 1011.7 |
| 20260509004039 | 55 | 0 | 0.0 | 3.0 | 0.00 | 0.00 | 0.00 | 69 | 1011.7 |
| 20260509003541 | 55 | 282 | 2.0 | 3.0 | 0.00 | 0.00 | 0.00 | 67 | 1011.9 |
| 20260509003052 | 54 | 284 | 1.0 | 3.0 | 0.00 | 0.00 | 0.00 | 68 | 1011.8 |
| 20260509002541 | 54 | 0 | 0.0 | 0.0 | 0.00 | 0.00 | 0.00 | 68 | 1011.8 |
| 20260509002041 | 54 | 0 | 0.0 | 0.0 | 0.00 | 0.00 | 0.00 | 69 | 1011.8 |
| 20260509001551 | 54 | 0 | 0.0 | 2.0 | 0.00 | 0.00 | 0.00 | 69 | 1011.6 |
| 20260509001041 | 55 | 0 | 0.0 | 3.0 | 0.00 | 0.00 | 0.00 | 67 | 1011.6 |
| 20260509000542 | 56 | 284 | 1.0 | 3.0 | 0.00 | 0.00 | 0.00 | 66 | 1011.6 |
| 20260509000049 | 58 | 284 | 0.0 | 3.0 | 0.00 | 0.00 | 0.00 | 64 | 1011.6 |
| 20260508235542 | 59 | 0 | 0.0 | 2.0 | 0.00 | 0.00 | 0.00 | 61 | 1011.6 |
| 20260508235040 | 60 | 0 | 0.0 | 2.0 | 0.00 | 0.00 | 0.00 | 57 | 1011.6 |
| 20260508234547 | 61 | 281 | 0.0 | 3.0 | 0.00 | 0.00 | 0.00 | 55 | 1011.4 |
| 20260508234042 | 61 | 0 | 0.0 | 3.0 | 0.00 | 0.00 | 0.00 | 52 | 1011.3 |
| 20260508233541 | 62 | 0 | 0.0 | 7.0 | 0.00 | 0.00 | 0.00 | 50 | 1011.3 |
| 20260508233102 | 62 | 281 | 2.0 | 7.0 | 0.00 | 0.00 | 0.00 | 50 | 1011.2 |
| 20260508232541 | 62 | 286 | 1.0 | 9.0 | 0.00 | 0.00 | 0.00 | 49 | 1011.2 |
| 20260508232042 | 62 | 281 | 3.0 | 10.0 | 0.00 | 0.00 | 0.00 | 50 | 1011.0 |
| 20260508231633 | 62 | 254 | 2.0 | 12.0 | 0.00 | 0.00 | 0.00 | 50 | 1011.0 |
| 20260508231041 | 62 | 290 | 2.0 | 12.0 | 0.00 | 0.00 | 0.00 | 50 | 1011.0 |
| 20260508230541 | 62 | 290 | 4.0 | 12.0 | 0.00 | 0.00 | 0.00 | 49 | 1010.9 |
| 20260508230100 | 62 | 270 | 4.0 | 8.0 | 0.00 | 0.00 | 0.00 | 49 | 1010.8 |
| 20260508225542 | 62 | 264 | 2.0 | 12.0 | 0.00 | 0.00 | 0.00 | 48 | 1010.9 |
| 20260508225108 | 62 | 279 | 7.0 | 13.0 | 0.00 | 0.00 | 0.00 | 49 | 1011.0 |
| 20260508224559 | 62 | 279 | 5.0 | 13.0 | 0.00 | 0.00 | 0.00 | 48 | 1011.0 |
| 20260508224041 | 62 | 306 | 4.0 | 15.0 | 0.00 | 0.00 | 0.00 | 48 | 1011.1 |
| 20260508223541 | 63 | 292 | 4.0 | 15.0 | 0.00 | 0.00 | 0.00 | 48 | 1011.1 |
| 20260508223054 | 63 | 271 | 5.0 | 10.0 | 0.00 | 0.00 | 0.00 | 46 | 1011.1 |
| 20260508222540 | 63 | 258 | 5.0 | 13.0 | 0.00 | 0.00 | 0.00 | 47 | 1011.1 |
| 20260508222041 | 63 | 257 | 3.0 | 13.0 | 0.00 | 0.00 | 0.00 | 48 | 1011.0 |
| 20260508221605 | 63 | 223 | 4.0 | 16.0 | 0.00 | 0.00 | 0.00 | 47 | 1011.0 |
| 20260508221041 | 63 | 261 | 7.0 | 16.0 | 0.00 | 0.00 | 0.00 | 47 | 1011.0 |
| 20260508220541 | 63 | 255 | 4.0 | 12.0 | 0.00 | 0.00 | 0.00 | 48 | 1010.9 |
| 20260508220053 | 63 | 319 | 4.0 | 12.0 | 0.00 | 0.00 | 0.00 | 48 | 1010.9 |
| 20260508215540 | 64 | 215 | 3.0 | 10.0 | 0.00 | 0.00 | 0.00 | 47 | 1010.8 |
| 20260508215041 | 64 | 228 | 4.0 | 12.0 | 0.00 | 0.00 | 0.00 | 46 | 1010.8 |
| 20260508214634 | 64 | 221 | 5.0 | 12.0 | 0.00 | 0.00 | 0.00 | 46 | 1010.9 |
| 20260508214045 | 64 | 244 | 5.0 | 12.0 | 0.00 | 0.00 | 0.00 | 46 | 1010.8 |
| 20260508213541 | 64 | 252 | 5.0 | 14.0 | 0.00 | 0.00 | 0.00 | 44 | 1010.8 |
| 20260508213051 | 64 | 252 | 6.0 | 14.0 | 0.00 | 0.00 | 0.00 | 44 | 1010.9 |
| 20260508212541 | 64 | 284 | 6.0 | 14.0 | 0.00 | 0.00 | 0.00 | 44 | 1010.8 |
| 20260508212046 | 64 | 215 | 6.0 | 13.0 | 0.00 | 0.00 | 0.00 | 43 | 1010.8 |
| 20260508211552 | 64 | 270 | 4.0 | 15.0 | 0.00 | 0.00 | 0.00 | 45 | 1010.8 |
| 20260508211041 | 64 | 274 | 5.0 | 15.0 | 0.00 | 0.00 | 0.00 | 44 | 1010.8 |
| 20260508210541 | 64 | 241 | 7.0 | 15.0 | 0.00 | 0.00 | 0.00 | 43 | 1010.8 |
| 20260508210054 | 64 | 257 | 8.0 | 15.0 | 0.00 | 0.00 | 0.00 | 42 | 1010.8 |
| 20260508205540 | 64 | 215 | 5.0 | 16.0 | 0.00 | 0.00 | 0.00 | 43 | 1010.8 |
| 20260508205041 | 64 | 273 | 5.0 | 16.0 | 0.00 | 0.00 | 0.00 | 42 | 1010.7 |
| 20260508204551 | 64 | 221 | 6.0 | 19.0 | 0.00 | 0.00 | 0.00 | 43 | 1010.8 |
| 20260508204041 | 65 | 290 | 9.0 | 19.0 | 0.00 | 0.00 | 0.00 | 40 | 1010.9 |
| 20260508203544 | 65 | 267 | 4.0 | 18.0 | 0.00 | 0.00 | 0.00 | 44 | 1010.9 |
| 20260508203110 | 65 | 263 | 5.0 | 19.0 | 0.00 | 0.00 | 0.00 | 44 | 1010.7 |
| 20260508202539 | 65 | 266 | 5.0 | 19.0 | 0.00 | 0.00 | 0.00 | 42 | 1010.9 |
| 20260508202038 | 65 | 240 | 5.0 | 19.0 | 0.00 | 0.00 | 0.00 | 44 | 1010.8 |
| 20260508201552 | 65 | 211 | 11.0 | 19.0 | 0.00 | 0.00 | 0.00 | 42 | 1010.8 |
| 20260508201041 | 66 | 255 | 4.0 | 17.0 | 0.00 | 0.00 | 0.00 | 45 | 1010.9 |
| 20260508200542 | 65 | 253 | 5.0 | 19.0 | 0.00 | 0.00 | 0.00 | 44 | 1010.8 |
| 20260508200053 | 64 | 238 | 5.0 | 19.0 | 0.00 | 0.00 | 0.00 | 43 | 1010.9 |
| 20260508195538 | 65 | 222 | 7.0 | 19.0 | 0.00 | 0.00 | 0.00 | 40 | 1010.9 |
| 20260508195039 | 65 | 225 | 6.0 | 12.0 | 0.00 | 0.00 | 0.00 | 40 | 1011.0 |
| 20260508194553 | 65 | 271 | 5.0 | 12.0 | 0.00 | 0.00 | 0.00 | 43 | 1010.9 |
| 20260508194039 | 64 | 259 | 4.0 | 17.0 | 0.00 | 0.00 | 0.00 | 41 | 1010.8 |
| 20260508193542 | 64 | 234 | 7.0 | 17.0 | 0.00 | 0.00 | 0.00 | 41 | 1011.1 |
| 20260508193123 | 65 | 235 | 7.0 | 19.0 | 0.00 | 0.00 | 0.00 | 40 | 1011.1 |
| 20260508192539 | 65 | 257 | 6.0 | 21.0 | 0.00 | 0.00 | 0.00 | 44 | 1011.1 |
| 20260508192039 | 66 | 269 | 7.0 | 21.0 | 0.00 | 0.00 | 0.00 | 41 | 1011.1 |
| 20260508191549 | 67 | 287 | 6.0 | 19.0 | 0.00 | 0.00 | 0.00 | 43 | 1011.0 |
| 20260508191037 | 66 | 248 | 7.0 | 19.0 | 0.00 | 0.00 | 0.00 | 39 | 1011.1 |
| 20260508190538 | 66 | 244 | 11.0 | 19.0 | 0.00 | 0.00 | 0.00 | 39 | 1011.3 |
| 20260508190052 | 66 | 172 | 5.0 | 15.0 | 0.00 | 0.00 | 0.00 | 43 | 1011.3 |
| 20260508185541 | 66 | 204 | 6.0 | 15.0 | 0.00 | 0.00 | 0.00 | 43 | 1011.4 |
| 20260508185041 | 66 | 269 | 7.0 | 15.0 | 0.00 | 0.00 | 0.00 | 41 | 1011.4 |
| 20260508184553 | 66 | 190 | 8.0 | 16.0 | 0.00 | 0.00 | 0.00 | 41 | 1011.5 |
| 20260508184038 | 65 | 235 | 5.0 | 16.0 | 0.00 | 0.00 | 0.00 | 44 | 1011.6 |
| 20260508183541 | 65 | 224 | 6.0 | 19.0 | 0.00 | 0.00 | 0.00 | 47 | 1011.7 |
| 20260508183052 | 65 | 211 | 7.0 | 19.0 | 0.00 | 0.00 | 0.00 | 42 | 1011.7 |
| 20260508182538 | 65 | 173 | 6.0 | 19.0 | 0.00 | 0.00 | 0.00 | 48 | 1011.8 |
| 20260508182041 | 64 | 219 | 5.0 | 18.0 | 0.00 | 0.00 | 0.00 | 49 | 1011.8 |
| 20260508181553 | 63 | 236 | 4.0 | 18.0 | 0.00 | 0.00 | 0.00 | 46 | 1011.9 |
| 20260508181038 | 64 | 210 | 9.0 | 27.0 | 0.00 | 0.00 | 0.00 | 45 | 1011.9 |
| 20260508180539 | 64 | 257 | 8.0 | 27.0 | 0.00 | 0.00 | 0.00 | 44 | 1011.9 |
| 20260508180105 | 64 | 213 | 9.0 | 27.0 | 0.00 | 0.00 | 0.00 | 45 | 1012.0 |
| 20260508175538 | 64 | 165 | 9.0 | 22.0 | 0.00 | 0.00 | 0.00 | 47 | 1012.0 |
| 20260508175039 | 64 | 223 | 9.0 | 21.0 | 0.00 | 0.00 | 0.00 | 44 | 1012.1 |
| 20260508174557 | 64 | 243 | 5.0 | 12.0 | 0.00 | 0.00 | 0.00 | 47 | 1012.2 |
| 20260508174038 | 64 | 217 | 5.0 | 16.0 | 0.00 | 0.00 | 0.00 | 46 | 1012.3 |
| 20260508173542 | 63 | 188 | 6.0 | 19.0 | 0.00 | 0.00 | 0.00 | 48 | 1012.3 |
| 20260508173050 | 63 | 212 | 9.0 | 21.0 | 0.00 | 0.00 | 0.00 | 51 | 1012.4 |
| 20260508172538 | 63 | 184 | 10.0 | 21.0 | 0.00 | 0.00 | 0.00 | 46 | 1012.3 |
| 20260508172041 | 63 | 227 | 10.0 | 21.0 | 0.00 | 0.00 | 0.00 | 44 | 1012.4 |
| 20260508171551 | 63 | 232 | 5.0 | 19.0 | 0.00 | 0.00 | 0.00 | 51 | 1012.5 |
| 20260508171040 | 62 | 270 | 10.0 | 19.0 | 0.00 | 0.00 | 0.00 | 49 | 1012.5 |
| 20260508170539 | 62 | 257 | 8.0 | 17.0 | 0.00 | 0.00 | 0.00 | 48 | 1012.5 |
| 20260508170049 | 61 | 292 | 7.0 | 18.0 | 0.00 | 0.00 | 0.00 | 52 | 1012.6 |
| 20260508165540 | 61 | 289 | 8.0 | 23.0 | 0.00 | 0.00 | 0.00 | 50 | 1012.8 |
| 20260508165042 | 60 | 269 | 9.0 | 23.0 | 0.00 | 0.00 | 0.00 | 46 | 1012.8 |
| 20260508164600 | 60 | 275 | 10.0 | 23.0 | 0.00 | 0.00 | 0.00 | 47 | 1013.0 |
| 20260508164038 | 60 | 242 | 5.0 | 19.0 | 0.00 | 0.00 | 0.00 | 51 | 1013.1 |
| 20260508163537 | 60 | 227 | 5.0 | 19.0 | 0.00 | 0.00 | 0.00 | 49 | 1013.1 |
| 20260508163053 | 60 | 278 | 10.0 | 19.0 | 0.00 | 0.00 | 0.00 | 47 | 1013.0 |
| 20260508162538 | 60 | 258 | 9.0 | 19.0 | 0.00 | 0.00 | 0.00 | 47 | 1013.1 |
| 20260508162038 | 60 | 279 | 9.0 | 21.0 | 0.00 | 0.00 | 0.00 | 47 | 1013.0 |
| 20260508161553 | 61 | 225 | 9.0 | 21.0 | 0.00 | 0.00 | 0.00 | 46 | 1012.9 |
| 20260508161040 | 61 | 258 | 11.0 | 20.0 | 0.00 | 0.00 | 0.00 | 48 | 1013.1 |
| 20260508160545 | 62 | 259 | 6.0 | 14.0 | 0.00 | 0.00 | 0.00 | 49 | 1012.9 |
| 20260508160052 | 61 | 238 | 4.0 | 13.0 | 0.00 | 0.00 | 0.00 | 51 | 1013.0 |
| 20260508155538 | 61 | 288 | 8.0 | 12.0 | 0.00 | 0.00 | 0.00 | 47 | 1013.1 |
| 20260508155038 | 61 | 257 | 5.0 | 19.0 | 0.00 | 0.00 | 0.00 | 46 | 1013.1 |
| 20260508154551 | 61 | 220 | 4.0 | 19.0 | 0.00 | 0.00 | 0.00 | 49 | 1013.3 |
| 20260508154038 | 61 | 206 | 8.0 | 21.0 | 0.00 | 0.00 | 0.00 | 53 | 1013.5 |
| 20260508153538 | 60 | 266 | 8.0 | 21.0 | 0.00 | 0.00 | 0.00 | 49 | 1013.5 |
| 20260508153047 | 60 | 239 | 7.0 | 16.0 | 0.00 | 0.00 | 0.00 | 48 | 1013.3 |
| 20260508152537 | 60 | 231 | 8.0 | 16.0 | 0.00 | 0.00 | 0.00 | 51 | 1013.5 |
| 20260508152041 | 60 | 242 | 6.0 | 19.0 | 0.00 | 0.00 | 0.00 | 51 | 1013.4 |
| 20260508151545 | 60 | 250 | 6.0 | 19.0 | 0.00 | 0.00 | 0.00 | 48 | 1013.4 |
| 20260508151041 | 60 | 219 | 9.0 | 18.0 | 0.00 | 0.00 | 0.00 | 48 | 1013.4 |
| 20260508150537 | 60 | 213 | 4.0 | 20.0 | 0.00 | 0.00 | 0.00 | 50 | 1013.5 |
| 20260508150049 | 59 | 189 | 10.0 | 20.0 | 0.00 | 0.00 | 0.00 | 49 | 1013.7 |
| 20260508145542 | 59 | 227 | 10.0 | 20.0 | 0.00 | 0.00 | 0.00 | 48 | 1013.6 |
| 20260508145041 | 59 | 290 | 8.0 | 25.0 | 0.00 | 0.00 | 0.00 | 53 | 1013.6 |
| 20260508144550 | 59 | 279 | 10.0 | 25.0 | 0.00 | 0.00 | 0.00 | 50 | 1013.6 |
| 20260508144041 | 59 | 269 | 8.0 | 23.0 | 0.00 | 0.00 | 0.00 | 49 | 1013.6 |
| 20260508143538 | 59 | 191 | 5.0 | 14.0 | 0.00 | 0.00 | 0.00 | 56 | 1013.9 |
| 20260508143055 | 59 | 217 | 5.0 | 10.0 | 0.00 | 0.00 | 0.00 | 54 | 1013.6 |
| 20260508142538 | 58 | 208 | 4.0 | 13.0 | 0.00 | 0.00 | 0.00 | 56 | 1013.8 |
| 20260508142038 | 58 | 10 | 3.0 | 13.0 | 0.00 | 0.00 | 0.00 | 54 | 1013.8 |
| 20260508141550 | 58 | 168 | 6.0 | 16.0 | 0.00 | 0.00 | 0.00 | 54 | 1013.8 |
| 20260508141037 | 57 | 197 | 6.0 | 17.0 | 0.00 | 0.00 | 0.00 | 57 | 1013.9 |
| 20260508140539 | 57 | 198 | 7.0 | 17.0 | 0.00 | 0.00 | 0.00 | 57 | 1013.8 |
| 20260508140049 | 57 | 230 | 4.0 | 12.0 | 0.00 | 0.00 | 0.00 | 54 | 1013.9 |
| 20260508135538 | 56 | 202 | 4.0 | 11.0 | 0.00 | 0.00 | 0.00 | 54 | 1013.9 |
| 20260508135038 | 56 | 212 | 4.0 | 13.0 | 0.00 | 0.00 | 0.00 | 56 | 1013.9 |
| 20260508134546 | 56 | 171 | 7.0 | 13.0 | 0.00 | 0.00 | 0.00 | 54 | 1013.9 |
| 20260508134037 | 56 | 178 | 5.0 | 16.0 | 0.00 | 0.00 | 0.00 | 56 | 1014.0 |
| 20260508133542 | 55 | 182 | 7.0 | 16.0 | 0.00 | 0.00 | 0.00 | 56 | 1014.0 |
| 20260508133050 | 55 | 159 | 7.0 | 12.0 | 0.00 | 0.00 | 0.00 | 59 | 1014.0 |
| 20260508132538 | 54 | 141 | 5.0 | 10.0 | 0.00 | 0.00 | 0.00 | 64 | 1014.2 |
| 20260508132041 | 53 | 139 | 3.0 | 10.0 | 0.00 | 0.00 | 0.00 | 65 | 1014.3 |
| 20260508131549 | 53 | 129 | 4.0 | 10.0 | 0.00 | 0.00 | 0.00 | 64 | 1014.4 |
| 20260508131038 | 53 | 130 | 6.0 | 10.0 | 0.00 | 0.00 | 0.00 | 65 | 1014.4 |
| 20260508130541 | 53 | 110 | 3.0 | 7.0 | 0.00 | 0.00 | 0.00 | 65 | 1014.5 |
| 20260508130055 | 52 | 119 | 2.0 | 7.0 | 0.00 | 0.00 | 0.00 | 67 | 1014.5 |
| 20260508125542 | 51 | 194 | 1.0 | 7.0 | 0.00 | 0.00 | 0.00 | 67 | 1014.5 |
| 20260508125038 | 50 | 156 | 2.0 | 6.0 | 0.00 | 0.00 | 0.00 | 66 | 1014.6 |
| 20260508124559 | 49 | 197 | 2.0 | 7.0 | 0.00 | 0.00 | 0.00 | 66 | 1014.6 |
| 20260508124041 | 49 | 200 | 1.0 | 8.0 | 0.00 | 0.00 | 0.00 | 67 | 1014.6 |
| 20260508123542 | 49 | 198 | 1.0 | 8.0 | 0.00 | 0.00 | 0.00 | 67 | 1014.6 |
| 20260508123057 | 48 | 202 | 2.0 | 8.0 | 0.00 | 0.00 | 0.00 | 67 | 1014.6 |
| 20260508122541 | 48 | 186 | 2.0 | 6.0 | 0.00 | 0.00 | 0.00 | 71 | 1014.7 |
| 20260508122041 | 48 | 171 | 2.0 | 7.0 | 0.00 | 0.00 | 0.00 | 72 | 1014.7 |
| 20260508121551 | 47 | 168 | 3.0 | 7.0 | 0.00 | 0.00 | 0.00 | 73 | 1014.6 |
| 20260508121042 | 47 | 0 | 1.0 | 5.0 | 0.00 | 0.00 | 0.00 | 74 | 1014.5 |
| 20260508120540 | 47 | 148 | 2.0 | 5.0 | 0.00 | 0.00 | 0.00 | 73 | 1014.4 |
| 20260508120055 | 47 | 159 | 1.0 | 6.0 | 0.00 | 0.00 | 0.00 | 74 | 1014.3 |
| 20260508115542 | 47 | 158 | 2.0 | 6.0 | 0.00 | 0.00 | 0.00 | 74 | 1014.2 |
| 20260508115041 | 46 | 163 | 2.0 | 5.0 | 0.00 | 0.00 | 0.00 | 74 | 1014.2 |
| 20260508114605 | 46 | 159 | 1.0 | 5.0 | 0.00 | 0.00 | 0.00 | 78 | 1014.1 |
| 20260508114041 | 45 | 159 | 1.0 | 5.0 | 0.00 | 0.00 | 0.00 | 78 | 1014.2 |
| 20260508113541 | 44 | 156 | 3.0 | 5.0 | 0.00 | 0.00 | 0.00 | 81 | 1014.0 |
| 20260508113046 | 43 | 134 | 0.0 | 3.0 | 0.00 | 0.00 | 0.00 | 86 | 1014.0 |
| 20260508112543 | 42 | 67 | 1.0 | 3.0 | 0.00 | 0.00 | 0.00 | 87 | 1013.9 |
| 20260508112040 | 41 | 0 | 0.0 | 1.0 | 0.00 | 0.00 | 0.00 | 87 | 1013.9 |
| 20260508111602 | 40 | 0 | 0.0 | 2.0 | 0.00 | 0.00 | 0.00 | 88 | 1013.8 |
| 20260508111042 | 39 | 0 | 0.0 | 3.0 | 0.00 | 0.00 | 0.00 | 88 | 1013.8 |
| 20260508110541 | 39 | 343 | 1.0 | 3.0 | 0.00 | 0.00 | 0.00 | 88 | 1013.8 |
| 20260508110057 | 38 | 343 | 0.0 | 2.0 | 0.00 | 0.00 | 0.00 | 87 | 1013.8 |
| 20260508105540 | 38 | 0 | 0.0 | 0.0 | 0.00 | 0.00 | 0.00 | 87 | 1013.9 |
| 20260508105038 | 38 | 0 | 0.0 | 0.0 | 0.00 | 0.00 | 0.00 | 88 | 1013.8 |
| 20260508104551 | 37 | 0 | 0.0 | 0.0 | 0.00 | 0.00 | 0.00 | 89 | 1013.7 |
| 20260508104041 | 37 | 0 | 0.0 | 0.0 | 0.00 | 0.00 | 0.00 | 89 | 1013.6 |
| 20260508103543 | 36 | 0 | 0.0 | 0.0 | 0.00 | 0.00 | 0.00 | 89 | 1013.6 |
| 20260508103047 | 36 | 0 | 0.0 | 0.0 | 0.00 | 0.00 | 0.00 | 88 | 1013.5 |
| 20260508102541 | 36 | 0 | 0.0 | 0.0 | 0.00 | 0.00 | 0.00 | 89 | 1013.6 |
| 20260508102041 | 36 | 0 | 0.0 | 0.0 | 0.00 | 0.00 | 0.00 | 89 | 1013.7 |
| 20260508101554 | 35 | 0 | 0.0 | 3.0 | 0.00 | 0.00 | 0.00 | 89 | 1013.7 |
| 20260508101040 | 35 | 0 | 0.0 | 3.0 | 0.00 | 0.00 | 0.00 | 88 | 1013.6 |
| 20260508100543 | 35 | 343 | 0.0 | 0.0 | 0.00 | 0.00 | 0.00 | 88 | 1013.6 |
| 20260508100052 | 35 | 0 | 0.0 | 0.0 | 0.00 | 0.00 | 0.00 | 89 | 1013.6 |
| 20260508095544 | 35 | 0 | 0.0 | 0.0 | 0.00 | 0.00 | 0.00 | 88 | 1013.4 |